Погода в Кесарии

Израиль     32°30′23″N   34°54′12″E
темп.,
°C
ветер,
м/с
пор.,
м/с
влажн.,
%
обл.,
%
осадки,
мм/ч
давл.,
гПа
погр.,
м
23 мая, пн
пн2300:00+19зюз6107751 0.0 1010582
03:00+19зюз587916 0.3 1010377
06:00+19юз588513 0.1 1010373
09:00+22зюз78650 0.1 1010964
12:00+24зюз89620 0.0 10111073
15:00+24зюз78590 0.0 1011926
18:00+22зюз67640 0.0 1010594
21:00+18ююз22900 0.0 101144
24 мая, вт
вт2400:00+18ююз34850 0.0 101290
03:00+17ююз37800 0.0 1011196
06:00+17ю35810 0.0 1012128
09:00+23юз55620 0.0 1012631
12:00+25зюз65530 0.0 1013740
15:00+25з66500 0.0 1012826
18:00+23з45640 0.0 1012508
21:00+19юз11880 0.0 101311
25 мая, ср
ср2500:00+18ююз11890 0.0 101319
03:00+18ююз11860 0.0 101319
06:00+17ю11840 0.0 101421
09:00+23зюз10550 0.0 1015485
12:00+27з42410 0.0 10141018
15:00+26зсз65460 0.0 1014658
18:00+24сз55550 0.0 1013456
21:00+20ссз22830 0.0 101543
26 мая, чт
чт2600:00+19ссз11870 0.0 101428
03:00+18с11890 0.0 101434
06:00+18ссв11890 0.0 101434
09:00+24ссз23540 0.0 1014524
12:00+30сз53370 0.0 10131078
15:00+28ссз76400 0.0 1012570
18:00+25ссз610500 0.0 1012373
21:00+21с37740 0.0 1012140
27 мая, пт
пт2700:00+20с12810 0.0 101248
03:00+19ссз12890 0.0 101144
06:00+18ююв11880 0.0 101236
09:00+26сз22512 0.0 1011410
12:00+32сз44320 0.0 1010915
15:00+30ссз77330 0.0 1009523
18:00+27с711410 0.0 1007356
21:00+22ссв23594 0.0 100764